This demonstration page uses our WeatherBlox Daily Observations layout. Learn more.

Left ArrowRight Arrow

39.08367, -84.50855

Hourly Observations for May 31, 2015

Temp ( °F °C ) Dew Point ( °F °C ) Humidity (%) Winds ( mph kmh ) Pressure ( in mb ) Visibility ( mi km ) Precip ( " mm )
12:53 am 00:53 Partly Cloudy 70 21.1 65 18.3 84 84 SSW 7 11 29.95 1014 10 16 N/A
1:53 am 01:53 Mostly Cloudy 71 21.7 65 18.3 81 81 N N/A 29.94 1014 10 16 N/A
2:53 am 02:53 Partly Cloudy 69 20.6 64 17.8 84 84 S 3 6 29.94 1014 10 16 N/A
3:53 am 03:53 Mostly Clear 68 20 66 18.9 93 93 N N/A 29.92 1013 10 16 N/A
4:53 am 04:53 Clear 72 22.2 65 18.3 79 79 S 10 17 29.91 1013 10 16 N/A
5:53 am 05:53 Cloudy 70 21.1 65 18.3 84 84 S 8 13 29.92 1013 10 16 N/A
6:53 am 06:53 Cloudy 70 21.1 65 18.3 84 84 SSW 10 17 29.92 1013 10 16 N/A
7:35 am 07:35 Mostly Cloudy 70 21.1 65 18.3 84 84 SSW 9 15 29.91 1013 10 16 N/A
7:53 am 07:53 Cloudy 70 21.1 65 18.3 84 84 SSW 13 20 29.93 1014 10 16 N/A
8:29 am 08:29 Cloudy 72 22.2 65 18.3 79 79 SSW 14 22 29.91 1013 10 16 N/A
8:44 am 08:44 Cloudy 72 22 64 18 78 78 SSW 14 22 29.91 1013 10 16 N/A
8:53 am 08:53 Mostly Cloudy 72 22.2 65 18.3 79 79 SSW 12 19 29.94 1014 10 16 N/A
9:53 am 09:53 Cloudy 72 22.2 66 18.9 82 82 SW 15 24 29.95 1014 10 16 N/A
10:09 am 10:09 Cloudy with Light Rain 70 21.1 66 18.9 87 87 WSW 13 20 29.94 1014 4 6 N/A
10:34 am 10:34 Cloudy 70 21 66 19 88 88 SW 13 20 29.94 1014 10 16 N/A
10:53 am 10:53 Mostly Cloudy 72 22.2 66 18.9 82 82 SW 16 26 29.96 1015 10 16 0.01 0.25
11:53 am 11:53 Mostly Cloudy 70 21 64 18 83 83 SSW 14 22 29.97 1015 10 16 N/A
11:55 am 11:55 Cloudy 70 21.1 64 17.8 82 82 SSW 15 24 29.97 1015 10 16 N/A
12:53 pm 12:53 Cloudy 69 20.6 63 17.2 81 81 SW 9 15 30.00 1016 10 16 N/A
1:25 pm 13:25 Cloudy 66 18.9 61 16.1 84 84 WSW 16 26 30.00 1016 10 16 N/A
1:53 pm 13:53 Cloudy 66 18.9 60 15.6 81 81 W 12 19 30.02 1017 10 16 N/A
2:27 pm 14:27 Cloudy 66 18.9 60 15.6 81 81 W 12 19 30.00 1016 10 16 N/A
2:53 pm 14:53 Cloudy 66 18.9 59 15 78 78 WNW 13 20 30.03 1017 10 16 N/A
3:53 pm 15:53 Cloudy 66 18.9 59 15 78 78 W 8 13 30.03 1017 10 16 N/A
4:53 pm 16:53 Cloudy 64 17.8 60 15.6 87 87 NW 8 13 30.03 1017 9 14 N/A
5:53 pm 17:53 Cloudy 63 17.2 59 15 87 87 NW 9 15 30.04 1017 8 13 N/A
6:12 pm 18:12 Cloudy 63 17 57 14 83 83 VRB 5 7 30.03 1017 10 16 N/A
6:53 pm 18:53 Cloudy 63 17.2 57 13.9 81 81 NW 9 15 30.05 1018 10 16 N/A
7:53 pm 19:53 Cloudy 62 16.7 56 13.3 80 80 N 10 17 30.06 1018 10 16 N/A
8:53 pm 20:53 Cloudy 61 16.1 55 12.8 81 81 NNW 10 17 30.07 1018 10 16 N/A
9:53 pm 21:53 Cloudy 60 15.6 53 11.7 78 78 N 10 17 30.09 1019 10 16 N/A
10:53 pm 22:53 Cloudy 58 14.4 52 11.1 81 81 N 13 20 30.12 1020 10 16 N/A
11:53 pm 23:53 Cloudy 58 14.4 51 10.6 78 78 NE 9 15 30.13 1020 10 16 N/A

Powered by AerisWeather